Showing default

RLFL14, 46268

Orbit data source: Space-Track

RLFL14, 46268 is a payload satellite owned by Rocket Lab (US) in LEO that was launched on Mon, 31 Aug 2020 UTC via an ELECTRON launch vehicle from the Rocket Lab Launch Complex (RLLC). Payloads include a variety of satellites, spacecraft, and rockets equipped with specific instruments for various scientific and technological missions. These include communications satellites like Starlink; space stations such as the ISS; scientific satellites like the Hubble; Earth observation satellites from companies like Planet Labs, Umbra, and HawkEye 360; GPS; miniature CubeSats for education and research; and military/defense satellites.

Loading next visibility...
RLFL14 details
Identifier
46268, 2020-060A
Orbit
LEO
Last TLE update16 hours ago
Origin
Flag of USRocket Lab (US)
ManufacturerRocket Lab
MissionOperational Commercial Technology
Bus & MotorPHOTON, CURIE
Mass~50 kg wet, ~20 kg dry
Launch date (UTC)
2020-08-31 (4 years ago)
Launch vehicle
ELECTRON
Launch site
Rocket Lab Launch Complex (RLLC)
Object type
Payload
Rocket body
Debris
Shape & HBRTrunc Cone, Unknown HBR
Radar Cross Section0.709 m², Medium (>0.1 m² and < 1m²)

Expand to show TLE details & history

TLE from 16 hours ago
0 RLFL14
1 46268U 20060A   24360.73381862  .00412376  00000-0  19845-2 0  9999
2 46268  45.0682 108.5931 0017586 323.3084  36.6615 15.80582435240071
Epoch: 2024-12-25T17:36Z
Definitive object data (Epoch: 2024-12-25T17:36:41.928Z)
Latitude-0.00006°
Longitude109.69502°
Altitude319.346 km
Speed7.724 km/s
True Right ascension07h 14m 22s
True Declination0° 00' 00"
Sunlit
Object was in full shadow at TLE epoch
Visualization TLE readout
Latitude-44.46601°
Longitude28.84484°
Altitude333.526 km
Speed7.713 km/s
Apparent Right ascension23h 33m 03s
Apparent Declination-47° 27' 02"
Sunlit
Object is in daylight
Visualization observer readout
Local Sidereal Time09:18:22
Azimuth241.458° WSW
Elevation-64.737°
Doppler factor1
Orbital elements
Apogee altitude342.225 km
Perigee altitude318.629 km
Semi-major axis6,708.564 km
Eccentricity0.0017586
Inclination45.0682°
RAAN108.5931°
Arg. of periapsis323.3084°
True anomaly36.78204°
Mean anomaly36.6615°
Eccentric anomaly36.72175°
Mean motion3.95002 °/min
BSTAR0.0019845
Orbital period91.14 mins
Loading maneuver chart data...
Loading historical data...
Loading historical data...
Loading historical data...
Loading historical data...
Loading historical data...
Loading historical data...
Loading historical data...
Other satellites on launch #60 in the year 2020 (2020-08-31 UTC)

RLFL14 Visibility forecast

Observer location: undefined°, undefined

Span
Click to sort rows by Start time (UTC) header in descending order
Start Az.
Max El. time (UTC)
Max El. Az.
Max El.
End time (UTC)
End Az.
4 mins2024-12-26 10:30:15.968Z200.662° SSW2024-12-26 10:32:15.968Z125.625° SE25.728°2024-12-26 10:34:15.968Z82.867° E
|